When you browse on this site, cookies collect data to enhance your experience and personalize the content and advertising you see.
Visit our Privacy Policy to learn more. By continuing to use the site, you agree to this use of cookies and data.
  • In Romania
  • List of Countries
  • For 7 days
  • Water Temperature
  • Satellite Maps
  • Weather Map
  • Weather Widgets
  • user-avatar
    Login

    Hourly Weather Cochabamba

    Today, 24 May, Friday

    Time Temperature Precipitation Wind Pressure Humidity
    00:00 +12°C° 0 mm 3 mps 556 mmHg 38%
    01:00 +11°C° 0 mm 3 mps 555 mmHg 32%
    02:00 +10°C° 0 mm 2 mps 555 mmHg 25%
    03:00 +10°C° 0 mm 2 mps 554 mmHg 22%
    04:00 +9°C° 0 mm 2 mps 554 mmHg 18%
    05:00 +8°C° 0 mm 2 mps 553 mmHg 14%
    06:00 +10°C° 0 mm 2 mps 555 mmHg 14%
    07:00 +13°C° 0 mm 1 mps 556 mmHg 13%
    08:00 +14°C° 0 mm 1 mps 557 mmHg 12%
    09:00 +16°C° 0 mm 1 mps 558 mmHg 12%
    10:00 +19°C° 0 mm 1 mps 559 mmHg 11%
    11:00 +21°C° 0 mm 1 mps 560 mmHg 10%
    12:00 +21°C° 0 mm 1 mps 559 mmHg 13%
    13:00 +22°C° 0 mm 1 mps 559 mmHg 15%
    14:00 +22°C° 0 mm 1 mps 558 mmHg 17%
    15:00 +21°C° 0 mm 2 mps 558 mmHg 22%
    16:00 +20°C° 0 mm 2 mps 557 mmHg 26%
    17:00 +20°C° 0 mm 2 mps 557 mmHg 31%
    18:00 +17°C° 0 mm 2 mps 556 mmHg 41%
    19:00 +15°C° 0 mm 1 mps 555 mmHg 52%
    20:00 +12°C° 0 mm 1 mps 554 mmHg 62%
    21:00 +12°C° 0 mm 1 mps 554 mmHg 63%
    22:00 +11°C° 0 mm 1 mps 554 mmHg 64%
    23:00 +11°C° 0 mm 1 mps 554 mmHg 65%

    Tomorrow, 25 May, Saturday

    Time Temperature Precipitation Wind Pressure Humidity
    00:00 +10°C° 0 mm 1 mps 553 mmHg 64%
    01:00 +10°C° 0 mm 1 mps 553 mmHg 62%
    02:00 +10°C° 0 mm 1 mps 553 mmHg 60%
    03:00 +10°C° 0 mm 1 mps 553 mmHg 57%
    04:00 +9°C° 0 mm 2 mps 552 mmHg 54%
    05:00 +9°C° 0 mm 2 mps 552 mmHg 51%
    06:00 +10°C° 0 mm 2 mps 553 mmHg 46%
    07:00 +13°C° 0 mm 2 mps 554 mmHg 40%
    08:00 +14°C° 0 mm 2 mps 555 mmHg 35%
    09:00 +16°C° 0 mm 2 mps 556 mmHg 31%
    10:00 +19°C° 0 mm 2 mps 557 mmHg 27%
    11:00 +21°C° 0 mm 2 mps 558 mmHg 23%
    12:00 +23°C° 0 mm 2 mps 558 mmHg 25%
    13:00 +22°C° 0 mm 3 mps 557 mmHg 26%
    14:00 +24°C° 0 mm 3 mps 557 mmHg 28%
    15:00 +22°C° 0.1 mm 3 mps 556 mmHg 34%
    16:00 +21°C° 0.1 mm 3 mps 555 mmHg 40%
    17:00 +20°C° 0.1 mm 4 mps 554 mmHg 46%
    18:00 +18°C° 0 mm 3 mps 554 mmHg 53%
    19:00 +16°C° 0 mm 3 mps 553 mmHg 61%
    20:00 +13°C° 0 mm 3 mps 553 mmHg 69%
    21:00 +13°C° 0 mm 3 mps 553 mmHg 67%
    22:00 +13°C° 0 mm 2 mps 553 mmHg 65%
    23:00 +13°C° 0 mm 2 mps 553 mmHg 63%

    Day after tomorrow, 26 May, Sunday

    Time Temperature Precipitation Wind Pressure Humidity
    00:00 +13°C° 0 mm 2 mps 553 mmHg 61%
    01:00 +12°C° 0 mm 2 mps 552 mmHg 60%
    02:00 +12°C° 0 mm 2 mps 552 mmHg 58%
    03:00 +12°C° 0 mm 2 mps 552 mmHg 55%
    04:00 +12°C° 0 mm 2 mps 552 mmHg 53%
    05:00 +10°C° 0 mm 2 mps 551 mmHg 50%
    06:00 +13°C° 0 mm 2 mps 552 mmHg 47%
    07:00 +14°C° 0 mm 2 mps 554 mmHg 43%
    08:00 +16°C° 0 mm 2 mps 555 mmHg 40%
    09:00 +18°C° 0 mm 2 mps 556 mmHg 36%
    10:00 +20°C° 0 mm 2 mps 557 mmHg 33%
    11:00 +23°C° 0 mm 2 mps 558 mmHg 30%
    12:00 +23°C° 0.3 mm 2 mps 557 mmHg 31%
    13:00 +24°C° 0.3 mm 3 mps 557 mmHg 33%
    14:00 +23°C° 0.3 mm 4 mps 556 mmHg 35%
    15:00 +22°C° 0.4 mm 4 mps 555 mmHg 40%
    16:00 +21°C° 0.4 mm 4 mps 555 mmHg 44%
    17:00 +20°C° 0.4 mm 4 mps 554 mmHg 49%
    18:00 +19°C° 0.2 mm 4 mps 553 mmHg 57%
    19:00 +17°C° 0.2 mm 4 mps 553 mmHg 65%
    20:00 +14°C° 0.2 mm 3 mps 553 mmHg 73%
    21:00 +14°C° 0 mm 3 mps 553 mmHg 74%
    22:00 +13°C° 0 mm 3 mps 553 mmHg 74%
    23:00 +13°C° 0 mm 3 mps 553 mmHg 75%

    27 May, Monday

    Time Temperature Precipitation Wind Pressure Humidity
    00:00 +14°C° 0 mm 2 mps 553 mmHg 74%
    01:00 +13°C° 0 mm 2 mps 552 mmHg 72%
    02:00 +13°C° 0 mm 2 mps 552 mmHg 71%
    03:00 +12°C° 0 mm 2 mps 552 mmHg 70%
    04:00 +12°C° 0 mm 2 mps 552 mmHg 68%
    05:00 +12°C° 0 mm 2 mps 551 mmHg 67%
    06:00 +13°C° 0 mm 2 mps 553 mmHg 61%
    07:00 +14°C° 0 mm 2 mps 554 mmHg 55%
    08:00 +16°C° 0 mm 2 mps 555 mmHg 49%
    09:00 +18°C° 0 mm 2 mps 556 mmHg 45%
    10:00 +19°C° 0 mm 2 mps 556 mmHg 41%
    11:00 +21°C° 0 mm 2 mps 557 mmHg 37%
    12:00 +23°C° 0 mm 2 mps 557 mmHg 37%
    13:00 +22°C° 0 mm 3 mps 556 mmHg 36%
    14:00 +24°C° 0 mm 3 mps 556 mmHg 36%
    15:00 +22°C° 0.3 mm 3 mps 556 mmHg 40%
    16:00 +22°C° 0.3 mm 3 mps 555 mmHg 43%
    17:00 +21°C° 0.3 mm 4 mps 555 mmHg 46%
    18:00 +19°C° 0.2 mm 4 mps 554 mmHg 56%
    19:00 +17°C° 0.2 mm 4 mps 554 mmHg 65%
    20:00 +16°C° 0.2 mm 3 mps 554 mmHg 75%
    21:00 +14°C° 0.1 mm 3 mps 554 mmHg 75%
    22:00 +14°C° 0.1 mm 2 mps 554 mmHg 75%
    23:00 +14°C° 0.1 mm 2 mps 554 mmHg 75%

    28 May, Tuesday

    Time Temperature Precipitation Wind Pressure Humidity
    00:00 +13°C° 0 mm 2 mps 553 mmHg 73%
    01:00 +13°C° 0 mm 2 mps 553 mmHg 71%
    02:00 +12°C° 0 mm 2 mps 552 mmHg 69%
    03:00 +12°C° 0 mm 2 mps 552 mmHg 66%
    04:00 +12°C° 0 mm 2 mps 552 mmHg 62%
    05:00 +10°C° 0 mm 2 mps 552 mmHg 59%
    06:00 +13°C° 0 mm 2 mps 553 mmHg 54%
    07:00 +14°C° 0 mm 2 mps 554 mmHg 48%
    08:00 +16°C° 0 mm 2 mps 555 mmHg 43%
    09:00 +18°C° 0 mm 2 mps 556 mmHg 38%
    10:00 +21°C° 0 mm 1 mps 557 mmHg 34%
    11:00 +23°C° 0 mm 1 mps 558 mmHg 30%
    12:00 +23°C° 0.1 mm 2 mps 557 mmHg 32%
    13:00 +23°C° 0.1 mm 2 mps 557 mmHg 34%
    14:00 +24°C° 0.1 mm 3 mps 556 mmHg 36%
    15:00 +22°C° 0.1 mm 3 mps 556 mmHg 40%
    16:00 +22°C° 0.1 mm 3 mps 555 mmHg 43%
    17:00 +21°C° 0.1 mm 4 mps 555 mmHg 47%
    18:00 +19°C° 0.2 mm 3 mps 555 mmHg 56%
    19:00 +17°C° 0.2 mm 3 mps 554 mmHg 66%
    20:00 +16°C° 0.2 mm 2 mps 554 mmHg 75%
    21:00 +15°C° 0 mm 2 mps 554 mmHg 75%
    22:00 +15°C° 0 mm 2 mps 554 mmHg 76%
    23:00 +14°C° 0 mm 2 mps 554 mmHg 77%

    29 May, Wednesday

    Time Temperature Precipitation Wind Pressure Humidity
    00:00 +14°C° 0 mm 2 mps 554 mmHg 75%
    01:00 +13°C° 0 mm 2 mps 553 mmHg 74%
    02:00 +13°C° 0 mm 2 mps 553 mmHg 72%
    03:00 +13°C° 0 mm 2 mps 553 mmHg 71%
    04:00 +13°C° 0 mm 2 mps 553 mmHg 70%
    05:00 +12°C° 0 mm 2 mps 553 mmHg 69%
    06:00 +14°C° 0 mm 2 mps 554 mmHg 65%
    07:00 +15°C° 0 mm 2 mps 555 mmHg 60%
    08:00 +16°C° 0 mm 2 mps 556 mmHg 56%
    09:00 +18°C° 0 mm 2 mps 557 mmHg 52%
    10:00 +19°C° 0 mm 2 mps 557 mmHg 48%
    11:00 +21°C° 0 mm 3 mps 558 mmHg 45%
    12:00 +22°C° 0.1 mm 3 mps 557 mmHg 44%
    13:00 +22°C° 0.1 mm 4 mps 557 mmHg 44%
    14:00 +22°C° 0.1 mm 4 mps 556 mmHg 43%
    15:00 +22°C° 0.1 mm 4 mps 556 mmHg 45%
    16:00 +21°C° 0.1 mm 4 mps 555 mmHg 47%
    17:00 +21°C° 0.1 mm 4 mps 555 mmHg 49%
    18:00 +19°C° 0 mm 4 mps 555 mmHg 56%
    19:00 +18°C° 0 mm 3 mps 554 mmHg 64%
    20:00 +16°C° 0 mm 2 mps 554 mmHg 71%
    21:00 +16°C° 0 mm 2 mps 554 mmHg 69%
    22:00 +15°C° 0 mm 2 mps 554 mmHg 67%
    23:00 +15°C° 0 mm 1 mps 554 mmHg 65%
    Show more